Regional Weather Roundup
Issued by NWS

Home | Current Version | Previous Version | Graphics & Text | Print | Product List | Glossary On
Versions: 1 2 3 4 5 6 7 8 9 10 11 12 13 14 15 16 17 18 19 20 21 22 23 24 25 26 27 28 29 30 31 32 33 34 35 36 37 38 39 40 41 42 43 44 45 46 47 48 49 50
000
ASUS43 KDMX 091003
RWRIA

WEATHER ROUNDUP FOR IOWA
NATIONAL WEATHER SERVICE DES MOINES IA
400 AM CST TUE FEB 09 2016

NOTE: "FAIR" INDICATES FEW OR NO CLOUDS BELOW 12,000 FEET WITH NO
SIGNIFICANT WEATHER AND/OR OBSTRUCTIONS TO VISIBILITY.

* - THESE STATIONS ARE NOT NWS STATIONS...THUS NOT UNDER NWS
QUALITY CONTROL.  THEY ALSO DO NOT REPORT WEATHER SUCH
AS PRECIPITATION OR FOG.

IAZ001>003-012>014-020>022-031>034-043>046-091100-
   NORTHWEST IOWA

CITY           SKY/WX    TMP DP  RH WIND       PRES   REMARKS
CARROLL *      CLOUDY    10   5  79 N30G37    30.07R WCI -12
CHEROKEE *     CLOUDY     9   5  85 N16G23    30.12R FOG     WCI  -9
DENISON *      CLOUDY     9   3  78 N20G26    30.09R WCI -11
LE MARS *      PTCLDY    10   5  79 N14G21    30.18R WCI  -5
ORANGE CITY *  CLEAR      9   3  78 N14G24    30.12R WCI  -8
SHELDON *      CLOUDY     7   3  85 N20       30.10R FOG     WCI -13
SIOUX CITY     CLEAR     15   5  64 N22       30.15R WCI  -3
SPENCER        CLOUDY     6   1  80 N24G31    30.09R BLWGSNOWWCI -16
STORM LAKE *   CLOUDY     7   5  92 NW18G24   30.08R FOG     WCI -12
$$

IAZ055>058-069>071-079>083-090>094-091100-
   SOUTHWEST IOWA

CITY           SKY/WX    TMP DP  RH WIND       PRES   REMARKS
ATLANTIC *     CLOUDY    10   5  79 N23       30.09R WCI -10
AUDUBON *      CLOUDY    10   3  72 NW22      30.07R WCI  -9
CLARINDA *     CLOUDY    16   9  73 N26G32    30.10R WCI  -3
COUNCIL BLFS * CLOUDY    14   9  79 N14       30.11R WCI  -1
CRESTON *      FLURRIES  12   5  73 NW25G31   30.03S WCI  -8
HARLAN  *      CLOUDY    10   3  72 N17G25    30.13R WCI  -7
LAMONI         CLOUDY    13   5  70 N18G25    30.00S WCI  -4
RED OAK *      CLOUDY    14   7  73 N18G30    30.11R WCI  -3
SHENANDOAH *   CLOUDY    18  12  79 N16G23    30.11R WCI   3
$$

IAZ047>049-059>061-072>074-084-091100-
   CENTRAL IOWA

CITY           SKY/WX    TMP DP  RH WIND       PRES   REMARKS
AMES           LGT SNOW  11   5  77 N22G30    30.02R WCI  -8
ANKENY *       FLURRIES  12   5  73 NW16G33   30.02S WCI  -4
BOONE *        LGT SNOW  10   5  79 NW21G29   30.01R WCI  -9
CHARITON *     FLURRIES  12   5  73 N21       29.99R WCI  -6
DES MOINES     FLURRIES  13   5  70 N12G24    30.02R WCI  -1
GRINNELL*      LGT SNOW  12   8  86 NW17G26   29.96R WCI  -5
KNOXVILLE *    FLURRIES  12   5  73 NW18G29   29.97S WCI  -5
MARSHALLTOWN   CLOUDY    12   7  80 NW21      29.96S WCI  -7
NEWTON *       LGT SNOW  12   7  79 NW23G29   29.98R WCI  -7
PELLA *        LGT SNOW  12   9  85 NW24G31   29.99S WCI  -8
$$

IAZ004>006-015-016-023>025-035-036-091100-
   NORTH CENTRAL IOWA

CITY           SKY/WX    TMP DP  RH WIND       PRES   REMARKS
ALGONA *       FLURRIES   9   5  85 NW25      30.03R WCI -13
CLARION *      CLOUDY    10   5  79 NW21G32   30.02R WCI  -9
ESTHERVILLE    CLOUDY     6   2  83 NW26      30.07R FOG     WCI -16
FORT DODGE *   CLOUDY     9   0  66 NW15G29   30.05R WCI  -8
MASON CITY     MIX PCPN  10   5  80 N24       29.99R WCI -10
FOREST CITY *    N/A     10   5  79 NW22G30   29.99R WCI  -9
WEBSTER CITY * LGT SNOW  10   5  79 NW28G33   30.01R WCI -11
IOWA FALLS *   CLOUDY    12   9  86 NW22      29.99R WCI  -7
$$

IAZ007>011-017>019-026>030-037>042-050>054-066-091100-
   NORTHEAST IOWA

CITY           SKY/WX    TMP DP  RH WIND       PRES   REMARKS
CEDAR RAPIDS   MIX PCPN  14   9  80 N24G31    29.89R WCI  -5
CHARLES CITY * CLOUDY    10   7  85 N20G26    29.95R WCI  -8
CLINTON *      LGT SNOW  14  11  87 NW16      29.86R FOG     WCI  -2
DECORAH *      FLURRIES  10   3  72 N16G25    29.89R WCI  -7
DUBUQUE        CLOUDY    12   5  73 N18       29.83R WCI  -6
MONTICELLO *   CLOUDY    12   5  73 NW14G21   29.87S WCI  -3
OELWEIN *      FLURRIES  12   7  79 N17G24    29.91R WCI  -5
WATERLOO       CLOUDY    12   6  77 NW21      29.94R WCI  -7
$$

IAZ064-065-067-068-078-091100-
   EAST CENTRAL IOWA

CITY           SKY/WX    TMP DP  RH WIND       PRES   REMARKS
DAVENPORT      LGT SNOW  15   9  76 NW16      29.86S WCI  -1
IOWA CITY      FLURRIES  15   9  76 NW14      29.92S WCI   0
MT. PLEASANT * FLURRIES  18  10  73 NW12G21   29.91S WCI   5
MUSCATINE *    CLOUDY    16  12  86 NW14      29.91S WCI   1
QUAD CITIES    FLURRIES  15   9  76 NW13      29.86S WCI   1
$$

IAZ062-063-075>077-085>089-095>099-091100-
   SOUTHEAST IOWA

CITY           SKY/WX    TMP DP  RH WIND       PRES   REMARKS
BURLINGTON     LGT SNOW  14  10  84 NW16      29.89R FOG     WCI  -2
FAIRFIELD *    FLURRIES  14   7  73 NW17G31   29.93S WCI  -3
FORT MADISON * LGT SNOW  14   9  79 NW16G23   29.91R WCI  -2
KEOKUK *       FLURRIES  16  10  79 NW10G17   29.92R WCI   3
OSKALOOSA *    FLURRIES  14   9  79 NW17G26   29.96R WCI  -3
OTTUMWA        LGT SNOW  13   8  81 NW22G30   29.96R WCI  -6
WASHINGTON *   FLURRIES  14   9  79 NW20      29.93S WCI  -3
$$

ABBREVIATIONS USED IN REMARKS
   TC - TEMPERATURES IN CELSIUS
  WCI - WIND CHILL INDEX
   HX - HEAT INDEX
  VSB - VISIBILITY
$$




USA.gov is the U.S. government's official web portal to all federal, state and local government web resources and services.